User: anonymous   Login
Location: Maccacari
(45.1333°N, 11.1333°E)
Time: 10:58:51
(UTC+00:00)
Language:

CZ-2C R/B - Orbit

View from above orbital plane
View from above orbital plane
View from above satellite
View from above satellite

Ground track
Ground track

The orbit data is extracted from the following two-line orbital elements,

1 31114U 07010B   20329.82439894 +.00000038 +00000-0 +36152-4 0  9993
2 31114 098.2414 171.7922 0060080 158.6055 201.7654 14.19337644705754
Epoch (UTC): 24 November 2020 19:47:08
Eccentricity: 0.0060080
inclination: 98.2414°
perigee height: 784 km
apogee height: 871 km
right ascension of ascending node: 171.7922°
argument of perigee: 158.6055°
revolutions per day: 14.19337644
mean anomaly at epoch: 201.7654°
orbit number at epoch: 70575

The dashed part of the orbit path shows where the satellite is in the earth's shadow,  

DLR